User: anonymous   Login
Location: Unspecified
(0.0000°N, 0.0000°E)
Time: 23:29:27
(UTC+00:00)
Language:

WGS 8 (USA 272) - Orbit

View from above orbital plane
View from above orbital plane
View from above satellite
View from above satellite

Ground track
Ground track

The orbit data is extracted from the following two-line orbital elements,

1 41879U 16075A   17327.05791162 0.00000000  00000-0  00000-0 0    02
2 41879   0.0280 139.8599 0003453  47.5432 312.5093  1.00270000    08
Epoch (UTC): 23 November 2017 01:23:23
Eccentricity: 0.0003453
inclination: 0.0280°
perigee height: 35772 km
apogee height: 35801 km
right ascension of ascending node: 139.8599°
argument of perigee: 47.5432°
revolutions per day: 1.00270000
mean anomaly at epoch: 312.5093°
orbit number at epoch: 0

The dashed part of the orbit path shows where the satellite is in the earth's shadow,  

DLR